EN

Hourly Weather Aliwal North

Today, 21 January, Thursday

Time Temperature Precipitation Wind Pressure Humidity
00:00 +23°C° 0 mm 2 mps 653 mmHg 59%
01:00 +21°C° 0 mm 2 mps 652 mmHg 63%
02:00 +22°C° 0 mm 1 mps 652 mmHg 63%
03:00 +21°C° 0 mm 1 mps 652 mmHg 65%
04:00 +21°C° 0 mm 1 mps 652 mmHg 66%
05:00 +20°C° 0 mm 1 mps 652 mmHg 68%
06:00 +22°C° 0 mm 1 mps 653 mmHg 61%
07:00 +24°C° 0 mm 1 mps 654 mmHg 53%
08:00 +26°C° 0 mm 1 mps 654 mmHg 46%
09:00 +28°C° 0 mm 2 mps 655 mmHg 37%
10:00 +31°C° 0 mm 3 mps 655 mmHg 28%
11:00 +34°C° 0 mm 4 mps 655 mmHg 19%
12:00 +35°C° 0 mm 4 mps 655 mmHg 17%
13:00 +36°C° 0 mm 4 mps 655 mmHg 15%
14:00 +37°C° 0 mm 4 mps 654 mmHg 12%
15:00 +37°C° 0 mm 4 mps 654 mmHg 12%
16:00 +37°C° 0 mm 4 mps 654 mmHg 12%
17:00 +37°C° 0 mm 4 mps 654 mmHg 12%
18:00 +35°C° 0 mm 3 mps 653 mmHg 15%
19:00 +33°C° 0 mm 3 mps 653 mmHg 18%
20:00 +30°C° 0 mm 3 mps 652 mmHg 21%
21:00 +28°C° 0 mm 3 mps 653 mmHg 28%
22:00 +27°C° 0 mm 3 mps 653 mmHg 35%
23:00 +26°C° 0 mm 3 mps 653 mmHg 41%

Tomorrow, 22 January, Friday

Time Temperature Precipitation Wind Pressure Humidity
00:00 +25°C° 0 mm 3 mps 653 mmHg 45%
01:00 +24°C° 0 mm 2 mps 652 mmHg 49%
02:00 +24°C° 0 mm 2 mps 652 mmHg 53%
03:00 +23°C° 0 mm 2 mps 652 mmHg 53%
04:00 +23°C° 0 mm 2 mps 652 mmHg 54%
05:00 +23°C° 0 mm 2 mps 652 mmHg 54%
06:00 +25°C° 0 mm 3 mps 652 mmHg 50%
07:00 +27°C° 0 mm 4 mps 653 mmHg 46%
08:00 +28°C° 0 mm 6 mps 654 mmHg 42%
09:00 +30°C° 0 mm 6 mps 654 mmHg 38%
10:00 +33°C° 0 mm 6 mps 654 mmHg 34%
11:00 +35°C° 0 mm 6 mps 654 mmHg 31%
12:00 +35°C° 0 mm 6 mps 653 mmHg 30%
13:00 +35°C° 0 mm 6 mps 653 mmHg 29%
14:00 +35°C° 0 mm 6 mps 652 mmHg 28%
15:00 +34°C° 0 mm 6 mps 652 mmHg 29%
16:00 +33°C° 0 mm 5 mps 652 mmHg 31%
17:00 +33°C° 0 mm 5 mps 652 mmHg 32%
18:00 +32°C° 0 mm 4 mps 652 mmHg 36%
19:00 +29°C° 0 mm 3 mps 652 mmHg 39%
20:00 +28°C° 0 mm 2 mps 652 mmHg 43%
21:00 +28°C° 0 mm 2 mps 652 mmHg 45%
22:00 +27°C° 0 mm 2 mps 652 mmHg 47%
23:00 +27°C° 0 mm 1 mps 652 mmHg 50%

Day after tomorrow, 23 January, Saturday

Time Temperature Precipitation Wind Pressure Humidity
00:00 +26°C° 0 mm 1 mps 651 mmHg 52%
01:00 +25°C° 0 mm 1 mps 650 mmHg 55%
02:00 +24°C° 0 mm 1 mps 650 mmHg 57%
03:00 +24°C° 0 mm 1 mps 650 mmHg 57%
04:00 +24°C° 0 mm 1 mps 650 mmHg 57%
05:00 +24°C° 0 mm 2 mps 650 mmHg 56%
06:00 +25°C° 0 mm 2 mps 650 mmHg 51%
07:00 +27°C° 0 mm 2 mps 651 mmHg 45%
08:00 +29°C° 0 mm 2 mps 651 mmHg 40%
09:00 +30°C° 0 mm 3 mps 652 mmHg 36%
10:00 +33°C° 0 mm 3 mps 652 mmHg 31%
11:00 +35°C° 0 mm 4 mps 652 mmHg 27%
12:00 +35°C° 0 mm 4 mps 652 mmHg 26%
13:00 +36°C° 0 mm 5 mps 651 mmHg 25%
14:00 +36°C° 0 mm 5 mps 651 mmHg 25%
15:00 +35°C° 0.1 mm 4 mps 650 mmHg 26%
16:00 +35°C° 0.1 mm 3 mps 650 mmHg 28%
17:00 +34°C° 0.1 mm 3 mps 650 mmHg 29%
18:00 +32°C° 0 mm 2 mps 649 mmHg 32%
19:00 +31°C° 0 mm 2 mps 649 mmHg 36%
20:00 +29°C° 0 mm 2 mps 649 mmHg 39%
21:00 +29°C° 0.1 mm 2 mps 649 mmHg 42%
22:00 +28°C° 0.1 mm 2 mps 650 mmHg 44%
23:00 +27°C° 0.1 mm 2 mps 650 mmHg 47%

24 January, Sunday

Time Temperature Precipitation Wind Pressure Humidity
00:00 +26°C° 0 mm 1 mps 650 mmHg 49%
01:00 +26°C° 0 mm 1 mps 649 mmHg 51%
02:00 +25°C° 0 mm 1 mps 649 mmHg 53%
03:00 +24°C° 0 mm 1 mps 649 mmHg 56%
04:00 +24°C° 0 mm 1 mps 649 mmHg 58%
05:00 +23°C° 0 mm 1 mps 649 mmHg 61%
06:00 +25°C° 0 mm 1 mps 650 mmHg 56%
07:00 +26°C° 0 mm 2 mps 651 mmHg 50%
08:00 +28°C° 0 mm 2 mps 652 mmHg 45%
09:00 +29°C° 0 mm 3 mps 652 mmHg 43%
10:00 +30°C° 0 mm 4 mps 652 mmHg 41%
11:00 +33°C° 0 mm 5 mps 653 mmHg 39%
12:00 +32°C° 0.1 mm 6 mps 652 mmHg 40%
13:00 +32°C° 0.1 mm 8 mps 652 mmHg 40%
14:00 +32°C° 0.1 mm 9 mps 651 mmHg 40%
15:00 +31°C° 0.2 mm 9 mps 651 mmHg 42%
16:00 +29°C° 0.2 mm 9 mps 651 mmHg 44%
17:00 +28°C° 0.2 mm 9 mps 651 mmHg 45%
18:00 +26°C° 0 mm 9 mps 651 mmHg 50%
19:00 +24°C° 0 mm 8 mps 651 mmHg 55%
20:00 +22°C° 0 mm 7 mps 651 mmHg 60%
21:00 +21°C° 0 mm 7 mps 651 mmHg 62%
22:00 +21°C° 0 mm 6 mps 651 mmHg 63%
23:00 +20°C° 0 mm 6 mps 652 mmHg 65%

25 January, Monday

Time Temperature Precipitation Wind Pressure Humidity
00:00 +20°C° 0 mm 5 mps 651 mmHg 67%
01:00 +19°C° 0 mm 5 mps 651 mmHg 69%
02:00 +18°C° 0 mm 4 mps 651 mmHg 70%
03:00 +18°C° 0 mm 3 mps 651 mmHg 72%
04:00 +17°C° 0 mm 3 mps 650 mmHg 74%
05:00 +17°C° 0 mm 2 mps 650 mmHg 76%
06:00 +18°C° 0 mm 2 mps 651 mmHg 71%
07:00 +21°C° 0 mm 1 mps 651 mmHg 65%
08:00 +22°C° 0 mm 1 mps 652 mmHg 60%
09:00 +24°C° 0 mm 1 mps 652 mmHg 55%
10:00 +26°C° 0 mm 2 mps 652 mmHg 50%
11:00 +28°C° 0 mm 2 mps 652 mmHg 45%
12:00 +30°C° 0 mm 2 mps 652 mmHg 40%
13:00 +31°C° 0 mm 2 mps 651 mmHg 35%
14:00 +34°C° 0 mm 2 mps 651 mmHg 31%
15:00 +33°C° 0.1 mm 3 mps 651 mmHg 32%
16:00 +33°C° 0.1 mm 3 mps 650 mmHg 33%
17:00 +33°C° 0.1 mm 4 mps 650 mmHg 34%
18:00 +30°C° 0 mm 3 mps 650 mmHg 38%
19:00 +29°C° 0 mm 3 mps 651 mmHg 42%
20:00 +28°C° 0 mm 2 mps 651 mmHg 46%
21:00 +27°C° 0.1 mm 3 mps 651 mmHg 51%
22:00 +26°C° 0.1 mm 5 mps 651 mmHg 57%
23:00 +24°C° 0.1 mm 6 mps 652 mmHg 62%

26 January, Tuesday

Time Temperature Precipitation Wind Pressure Humidity
00:00 +23°C° 0.1 mm 4 mps 651 mmHg 66%
01:00 +22°C° 0.1 mm 3 mps 651 mmHg 69%
02:00 +21°C° 0.1 mm 2 mps 651 mmHg 72%
03:00 +21°C° 0.3 mm 2 mps 651 mmHg 74%
04:00 +22°C° 0.3 mm 1 mps 651 mmHg 76%
05:00 +22°C° 0.3 mm 1 mps 651 mmHg 78%
06:00 +22°C° 0.3 mm 1 mps 651 mmHg 75%
07:00 +22°C° 0.3 mm 1 mps 652 mmHg 72%
08:00 +23°C° 0.3 mm 1 mps 652 mmHg 69%
09:00 +25°C° 0 mm 1 mps 652 mmHg 63%
10:00 +26°C° 0 mm 2 mps 652 mmHg 57%
11:00 +28°C° 0 mm 2 mps 652 mmHg 50%
12:00 +29°C° 0.1 mm 2 mps 652 mmHg 45%
13:00 +31°C° 0.1 mm 2 mps 652 mmHg 40%
14:00 +34°C° 0.1 mm 2 mps 652 mmHg 34%
15:00 +32°C° 0.1 mm 2 mps 651 mmHg 36%
16:00 +33°C° 0.1 mm 3 mps 651 mmHg 37%
17:00 +31°C° 0.1 mm 3 mps 651 mmHg 39%
18:00 +30°C° 0.4 mm 3 mps 651 mmHg 46%
19:00 +28°C° 0.4 mm 4 mps 651 mmHg 53%
20:00 +26°C° 0.4 mm 4 mps 651 mmHg 59%
21:00 +25°C° 0.9 mm 3 mps 651 mmHg 65%
22:00 +24°C° 0.9 mm 2 mps 651 mmHg 70%
23:00 +23°C° 0.9 mm 1 mps 651 mmHg 76%
Show more